Location: Chefe Valiua
(16.5342°S, 37.2214°E)
Time: 05:45:13
(UTC+00:00)

Cosmos 2278 Rocket - Pass Details

Date: 19 January 2021
Orbit: 840 x 847 km, 71.0° (Epoch: 07 March)

Event Time Altitude Azimuth Distance (km) Brightness Sun altitude
Rises 16:32:17 0° 204° (SSW) 3,407 6.2 -5.6°
Reaches altitude 10° 16:34:47 10° 209° (SSW) 2,468 5.5 -6.2°
Maximum altitude 16:40:18 54° 285° (WNW) 1,016 3.0 -7.4°
Drops below altitude 10° 16:45:46 10° 1° (N) 2,449 4.4 -8.6°
Sets 16:48:14 0° 5° (N) 3,379 5.0 -9.1°
